Temperature
12 12 12 12 12 12 12 12 12 13 13 12 12 11 11 11 12 11 11 12 12 12 12 12 12 12 12 11 11 11 11 11 11 11 11 11 11 11
12 12 12 12 12 12 12 12 12 12 12 12 11 11 11 11 11 11 11 11 11 11 11 11 11 11 11 11 11 11 11 11 11 11 11 11 11 10
11 11 11 12 11 12 12 12 12 12 11 11 11 11 11 11 11 11 11 11 11 11 11 11 11 11 11 11 11 11 11 11 11 11 11 11 10 10
11 11 11 11 11 11 11 11 11 11 11 11 11 11 11 11 11 11 11 11 11 11 11 11 11 11 11 11 11 11 11 11 11 10 10 10 10 10
11 11 11 11 11 11 11 11 11 11 11 11 10 10 10 11 11 10 10 10 10 10 10 11 11 11 11 11 11 11 11 11 11 10 10 10 10 10
11 11 11 11 10 10 11 11 10 10 10 10 10 10 10 10 10 10 10 10 10 10 10 10 10 10 10 10 10 10 10 10 10 10 10 10 10 10
10 10 10 10 10 10 10 10 10 10 10 10 10 10 10 10 10 10 10 10 10 10 10 10 10 10 10 10 10 10 10 10 10 10 10 10 10 10
10 10 10 10 10 10 10 10 10 10 10 10 10 10 10 9 9 9 9 9 9 9 10 9 10 10 10 10 10 10 10 10 10 10 10 10 10 10
10 10 10 10 10 10 10 10 10 10 10 10 10 10 10 9 9 9 9 9 9 9 9 9 9 9 9 10 10 10 10 10 10 10 10 10 10 9
9 9 9 10 10 10 9 9 9 10 9 9 9 9 9 9 9 9 9 9 9 9 9 9 9 9 9 9 10 10 10 10 9 9 9 9 9 9
9 9 9 9 9 9 9 9 9 9 9 9 9 9 9 9 9 9 9 9 9 9 9 8 8 9 9 9 9 9 9 9 9 9 9 9 9 9
9 9 9 9 9 9 9 9 9 9 9 9 9 9 9 9 9 9 9 8 8 8 9 8 8 8 8 9 9 9 9 9 9 9 9 9 9 9
8 8 8 9 8 9 8 8 9 9 8 8 8 8 8 8 8 8 8 8 8 8 8 8 8 8 8 8 8 8 8 8 8 8 8 8 8 8
8 8 8 8 8 8 8 8 8 8 8 8 8 8 8 8 8 8 8 8 8 8 8 8 8 8 7 7 8 8 8 8 8 8 8 8 8 8
7 7 7 8 8 8 8 8 8 7 7 7 7 7 7 7 7 8 8 8 7 8 7 7 7 7 7 7 7 7 7 7 8 8 8 8 8 8
7 7 7 7 7 7 7 7 7 7 7 7 7 7 7 7 7 7 7 7 7 7 7 7 7 7 7 7 7 7 7 7 7 7 7 7 8 8
6 6 6 6 6 6 6 6 7 7 7 6 6 6 7 7 6 7 7 7 7 7 7 7 7 7 7 6 6 7 7 7 7 7 7 7 7 7
6 5 5 6 6 6 6 6 6 6 6 6 6 6 6 6 6 6 6 6 6 6 6 6 6 6 6 6 7 6 6 7 7 7 7 7 7 7
5 5 5 5 5 5 5 5 6 6 6 6 6 6 6 6 6 6 6 6 6 6 6 6 6 6 6 6 6 6 6 6 6 6 7 7 7 7
4 4 5 5 5 5 5 5 5 5 5 5 5 5 5 5 5 5 5 5 5 5 6 6 6 5 5 6 6 6 6 6 6 6 6 6 6 7
4 4 4 4 4 4 4 4 4 5 5 5 5 5 5 5 5 5 5 5 5 5 5 5 5 5 5 5 5 5 6 6 6 6 6 6 6 6
3 3 3 3 4 4 4 4 4 4 4 4 4 4 4 5 5 5 4 4 4 4 5 5 5 5 5 5 5 5 5 5 5 5 5 5 5 5
3 3 3 3 3 3 4 4 4 4 4 4 4 4 4 4 4 4 4 4 4 4 4 4 4 4 4 4 4 4 4 5 5 5 5 5 5 5
Wind_Speed
3 4 3 2 2 2 2 2 3 2 2 1 1 1 2 2 3 3 4 7 6 6 5 5 5 5 5 5 4 5 4 3 3 3 3 4 4 5
3 3 3 3 2 2 2 3 3 3 2 1 1 2 2 2 3 2 4 7 6 5 5 4 4 4 4 4 4 4 3 3 2 2 3 3 3 3
4 4 4 3 3 3 3 3 3 3 3 2 1 2 2 2 3 2 3 4 5 6 4 4 3 3 3 3 3 4 3 2 2 2 2 2 2 2
4 5 5 4 4 4 3 4 3 3 3 3 2 2 2 2 2 2 2 2 3 6 5 3 3 3 3 3 3 3 3 3 2 2 2 2 2 1
5 5 5 5 5 4 4 4 3 3 3 4 3 2 2 2 2 2 2 2 2 5 5 4 4 3 3 4 4 3 3 3 2 2 2 2 1 1
5 5 5 5 5 5 5 5 4 4 4 4 3 3 3 2 3 3 3 2 3 3 3 4 5 5 5 6 5 4 4 4 3 3 3 3 2 2
5 5 5 4 2 3 4 4 5 4 4 4 4 4 4 3 4 4 4 3 3 3 3 3 4 5 5 7 8 7 6 6 5 5 4 4 4 3
5 5 5 4 3 4 4 4 5 6 6 5 5 6 5 5 4 4 4 4 3 3 4 4 4 4 4 5 7 8 9 8 7 7 6 6 6 6
5 5 4 4 5 5 5 6 7 7 6 6 7 7 6 6 6 7 6 5 4 3 4 4 4 5 5 5 7 9 9 9 9 8 8 8 8 7
4 5 5 5 4 5 5 6 6 7 7 7 7 6 6 5 7 7 7 6 4 3 4 4 4 4 4 5 8 10 10 10 10 9 9 9 10 10
4 4 5 5 3 4 6 6 6 6 5 6 5 4 3 4 5 4 5 5 5 4 5 4 4 4 4 5 6 10 11 11 11 10 10 10 11 11
3 3 3 4 3 5 7 7 7 6 5 6 6 6 6 6 8 7 6 6 5 4 4 4 4 3 3 3 4 6 9 11 12 12 12 11 11 10
4 3 3 2 4 4 6 6 6 5 6 6 5 5 5 5 6 7 6 6 6 5 4 5 4 4 4 3 3 4 6 6 8 9 12 13 13 11
4 4 3 2 4 4 5 4 4 4 5 4 5 5 5 5 5 6 7 7 7 6 5 6 5 5 5 5 4 3 4 6 6 6 7 9 12 14
3 2 2 2 4 4 5 5 5 4 5 5 5 6 5 5 5 4 5 6 6 6 6 7 6 5 6 6 6 5 4 5 6 6 6 6 7 7
3 2 2 2 3 3 3 4 4 4 4 5 5 5 5 5 5 5 5 5 5 5 6 7 7 6 6 7 6 6 6 5 5 6 6 6 7 8
3 2 2 2 2 2 3 3 3 4 4 5 5 5 5 5 5 5 5 5 6 6 5 4 6 7 6 6 6 7 7 6 6 6 6 7 7 7
2 2 3 3 3 3 3 3 3 3 4 4 5 5 5 5 5 5 5 5 6 6 6 5 4 4 4 5 7 8 7 7 6 6 6 7 8 7
2 3 3 3 3 3 3 4 4 4 4 4 5 5 5 5 5 5 5 6 6 6 6 5 5 6 7 7 5 8 7 6 6 7 7 7 8 7
2 3 3 3 4 4 4 4 4 4 4 4 4 5 5 5 5 5 6 6 6 6 6 5 6 7 8 8 6 5 9 7 7 7 7 7 7 6
3 3 3 3 4 4 4 4 4 4 4 4 4 5 5 6 6 6 6 6 7 7 7 7 6 7 6 5 5 6 5 8 8 7 7 6 6 6
3 4 4 4 4 4 4 4 4 4 4 5 5 5 5 5 6 7 6 6 6 7 8 6 5 4 5 6 8 8 6 5 6 9 8 7 6 6
4 4 4 4 5 5 4 5 5 5 5 5 5 6 6 6 6 6 7 7 6 6 6 6 5 5 6 7 7 7 8 6 4 5 6 8 10 9
Wind_Direction
235 232 232 224 233 229 228 230 232 224 220 184 183 159 139 111 121 148 134 116 116 111 103 101 104 101 98 99 97 94 93 92 92 91 92 87 84 85
234 233 229 221 216 222 225 232 241 239 238 217 198 179 144 136 123 141 130 129 135 126 116 111 104 104 104 100 96 97 97 94 96 103 109 97 86 86
221 222 224 225 218 218 216 219 226 220 220 230 202 175 162 163 133 149 153 151 144 145 134 128 122 124 124 116 112 101 97 103 105 117 128 116 110 97
234 227 221 216 223 221 220 218 218 214 208 204 192 186 193 183 172 178 168 158 155 143 151 149 150 144 150 145 138 127 117 113 115 117 134 134 135 121
238 239 230 221 221 217 220 219 219 214 205 199 191 170 194 191 195 199 193 177 179 163 171 182 181 180 180 172 168 162 156 150 150 159 173 173 186 196
237 241 239 234 232 222 217 216 216 212 206 201 195 184 186 193 202 203 203 200 209 192 189 205 202 203 201 195 194 192 189 187 189 190 193 199 211 227
235 237 235 237 258 233 223 217 213 212 207 208 206 201 194 191 205 208 211 203 212 208 210 211 208 213 211 208 209 211 211 209 207 208 210 212 217 223
235 235 224 212 211 214 219 223 227 222 216 216 219 216 215 212 212 212 209 210 221 204 224 231 221 227 224 223 207 210 216 218 218 220 222 226 229 232
244 238 227 219 212 221 213 212 221 227 234 231 226 227 226 216 212 217 219 221 232 201 215 234 225 232 226 222 204 208 215 221 226 231 234 235 235 237
251 245 235 227 221 229 226 226 230 224 222 231 237 238 235 228 219 224 225 226 237 208 210 242 231 238 236 226 205 208 216 224 231 235 238 239 239 240
250 246 244 240 225 232 229 227 230 232 213 223 252 252 248 227 210 213 211 213 229 221 209 235 245 246 247 239 213 207 216 224 228 234 237 240 241 241
261 251 242 254 238 227 227 225 229 231 226 217 223 225 223 208 203 217 217 222 229 230 205 219 235 239 248 238 228 219 220 223 226 231 235 237 237 238
261 256 248 235 242 240 243 234 236 241 230 227 224 222 217 213 211 222 228 230 234 237 213 214 235 237 248 254 248 237 230 230 228 232 232 233 232 235
266 261 255 226 237 234 234 234 233 234 233 231 228 224 221 220 222 222 227 231 242 250 225 215 234 236 243 251 257 241 238 238 236 239 235 229 230 233
279 296 283 235 232 228 220 223 221 224 227 230 231 232 232 230 227 223 226 228 241 249 238 225 232 237 242 252 255 254 252 248 238 242 242 238 237 234
274 255 224 209 220 227 217 221 228 228 229 233 240 243 239 231 226 225 225 222 232 240 239 236 234 235 240 250 254 254 251 247 241 242 243 247 242 236
269 257 251 238 227 225 226 227 231 231 236 240 243 244 241 236 233 232 233 232 235 240 237 237 238 236 245 249 248 248 247 248 246 243 243 246 247 241
256 240 244 246 237 235 237 237 233 236 240 241 242 243 242 238 235 232 232 236 239 244 243 234 225 233 246 254 239 249 248 247 249 242 241 247 252 246
235 243 244 247 247 246 248 246 244 242 242 243 241 243 246 244 240 236 234 239 245 247 248 239 227 229 243 255 244 226 246 249 243 242 241 244 251 251
248 256 257 255 256 254 251 251 253 252 248 250 253 250 248 246 244 243 241 243 247 248 249 243 237 236 242 254 260 251 231 242 243 243 244 248 254 256
252 260 265 263 259 256 255 253 250 250 252 250 253 258 254 249 246 246 246 247 248 249 248 248 249 244 254 261 258 255 243 232 246 250 248 246 251 249
256 257 261 265 262 260 254 253 251 248 252 252 254 257 258 255 251 249 248 246 247 252 257 258 253 242 244 246 252 257 260 252 245 256 255 250 251 246
260 259 260 265 260 257 259 254 253 254 253 252 252 253 254 256 258 253 250 249 250 254 258 257 250 243 247 248 253 257 259 256 252 250 252 248 249 264
Height
1533 1533 1534 1534 1535 1535 1535 1536 1537 1537 1537 1537 1537 1536 1536 1536 1536 1537 1537 1536 1537 1537 1537 1537 1537 1537 1538 1538 1537 1537 1536 1535 1535 1534 1534 1533 1533 1532
1531 1531 1532 1532 1533 1533 1533 1534 1535 1535 1535 1535 1535 1535 1535 1535 1535 1536 1536 1535 1536 1536 1536 1537 1537 1537 1537 1537 1537 1536 1535 1535 1534 1534 1534 1533 1533 1532
1529 1529 1529 1530 1530 1531 1531 1532 1532 1533 1533 1533 1533 1533 1533 1533 1534 1534 1535 1535 1535 1535 1535 1536 1536 1536 1536 1536 1536 1535 1535 1534 1534 1534 1533 1533 1532 1532
1526 1527 1527 1527 1528 1528 1529 1530 1530 1531 1531 1531 1531 1531 1532 1532 1532 1533 1533 1533 1534 1533 1534 1534 1534 1534 1535 1535 1534 1534 1534 1533 1533 1533 1532 1532 1532 1531
1524 1524 1524 1525 1525 1526 1526 1527 1528 1528 1529 1529 1529 1529 1529 1530 1530 1531 1532 1532 1532 1532 1532 1533 1533 1533 1533 1533 1533 1533 1532 1532 1532 1532 1531 1531 1531 1530
1521 1521 1522 1522 1522 1523 1523 1524 1525 1526 1527 1527 1527 1527 1527 1528 1528 1529 1530 1530 1530 1531 1531 1531 1531 1531 1531 1531 1531 1531 1531 1530 1530 1530 1530 1529 1529 1528
1518 1518 1519 1519 1519 1520 1520 1521 1522 1523 1524 1524 1525 1525 1525 1525 1526 1527 1527 1528 1528 1529 1529 1529 1529 1529 1529 1529 1529 1529 1529 1529 1528 1528 1528 1527 1527 1526
1515 1515 1515 1516 1516 1516 1517 1518 1519 1520 1521 1521 1522 1522 1523 1523 1524 1524 1525 1526 1526 1527 1526 1527 1527 1527 1527 1527 1526 1526 1526 1526 1526 1526 1526 1525 1525 1524
1512 1512 1512 1512 1513 1514 1514 1514 1515 1516 1517 1518 1519 1519 1520 1520 1521 1522 1522 1523 1524 1524 1524 1524 1524 1524 1524 1524 1524 1524 1523 1523 1523 1523 1523 1523 1522 1522
1508 1508 1509 1509 1509 1510 1511 1511 1512 1513 1513 1514 1516 1516 1517 1517 1518 1519 1519 1520 1521 1520 1521 1521 1521 1521 1521 1521 1520 1520 1520 1520 1520 1520 1520 1520 1519 1519
1505 1505 1505 1505 1506 1506 1507 1508 1508 1509 1510 1510 1511 1512 1513 1513 1514 1515 1515 1516 1517 1517 1518 1518 1518 1518 1518 1517 1517 1517 1517 1517 1517 1516 1516 1516 1516 1516
1501 1501 1501 1501 1502 1502 1503 1504 1504 1505 1506 1507 1508 1508 1509 1510 1510 1511 1512 1513 1513 1514 1514 1514 1514 1515 1514 1514 1514 1513 1513 1513 1513 1513 1513 1513 1513 1512
1497 1497 1497 1497 1497 1497 1498 1499 1500 1502 1503 1503 1504 1504 1505 1506 1506 1507 1508 1509 1510 1510 1510 1510 1510 1511 1511 1510 1510 1510 1509 1509 1509 1509 1509 1508 1509 1508
1493 1493 1493 1493 1493 1494 1494 1495 1496 1497 1498 1499 1500 1500 1501 1501 1502 1503 1503 1504 1505 1506 1506 1506 1506 1507 1507 1506 1506 1505 1505 1505 1505 1504 1504 1504 1504 1504
1490 1490 1490 1490 1490 1490 1491 1491 1492 1493 1494 1495 1495 1496 1497 1497 1498 1498 1499 1500 1500 1501 1501 1501 1502 1502 1502 1502 1502 1501 1501 1500 1500 1500 1500 1500 1499 1499
1486 1486 1486 1486 1487 1487 1487 1488 1488 1489 1490 1491 1492 1492 1493 1493 1493 1494 1494 1495 1495 1495 1496 1496 1497 1497 1497 1497 1497 1496 1496 1496 1496 1496 1495 1495 1495 1494
1483 1483 1483 1483 1483 1483 1484 1484 1484 1485 1486 1487 1488 1488 1488 1488 1489 1489 1490 1490 1490 1490 1491 1491 1492 1492 1492 1492 1492 1491 1492 1491 1491 1491 1490 1490 1489 1489
1480 1479 1479 1480 1480 1480 1480 1480 1481 1481 1482 1483 1483 1483 1484 1484 1484 1484 1485 1485 1485 1486 1486 1486 1486 1487 1487 1486 1487 1486 1486 1486 1486 1486 1485 1485 1484 1485
1476 1476 1476 1477 1477 1477 1477 1477 1477 1477 1478 1478 1478 1478 1479 1479 1480 1480 1480 1480 1480 1481 1481 1481 1481 1481 1481 1481 1480 1481 1481 1481 1481 1480 1480 1480 1479 1479
1473 1473 1473 1473 1473 1473 1473 1473 1473 1473 1473 1474 1474 1474 1474 1474 1474 1475 1475 1475 1475 1475 1476 1476 1475 1475 1476 1476 1476 1475 1475 1476 1475 1475 1475 1474 1474 1474
1469 1469 1469 1469 1469 1469 1469 1469 1469 1469 1469 1469 1469 1469 1469 1470 1470 1470 1470 1470 1471 1471 1470 1470 1470 1471 1471 1471 1470 1469 1469 1470 1470 1470 1470 1469 1468 1468
1466 1466 1465 1465 1465 1465 1465 1465 1464 1464 1464 1464 1464 1465 1465 1465 1465 1465 1465 1465 1465 1465 1465 1466 1466 1465 1465 1465 1464 1464 1464 1464 1463 1464 1464 1464 1463 1462
1462 1462 1461 1461 1460 1460 1460 1460 1460 1460 1460 1460 1460 1460 1460 1460 1460 1460 1460 1460 1461 1461 1460 1460 1460 1460 1460 1460 1459 1459 1459 1458 1457 1457 1457 1457 1457 1457